COSMOS 1275 DEB, 13470

Orbit data source: Space-Track

COSMOS 1275 DEB, 13470 is space debris in LEO originally from a launch on Thu, 04 Jun 1981 UTC launched from the Plesetsk Missile And Space Complex (PKMTR). Debris objects in space refer to the collection of defunct objects orbiting the Earth. Examples of debris include non-operational satellites, rocket bodies, and fragments generated from explosions, collisions, or faulty payload assembly.

Loading next visibility...
Identifier
13470, 1981-053FS
Orbit
LEO
Country
Flag of CISCIS
Related business
Manufacturer
Unknown
Mission
Spacecraft
Bus & Motor
Unknown
Mass
Unknown
Launch date (UTC)
1981-06-04 (45 years ago)
Launch vehicle
Unknown
Launch site
Plesetsk Missile And Space Complex (PKMTR)
Object type
Payload
Rocket body
Debris
Shape & HBR
Unknown shape, 0.1 m
Radar Cross Section
Medium (>0.1 m² and <1 m²)

Expand to show TLE details & history
Last TLE update: 9 hours ago

TLE from 9 hours ago
0 COSMOS 1275 DEB
1 13470U 81053FS  26150.59677675  .00000144  00000-0  22528-3 0  9999
2 13470  82.8195 194.4667 0235585 298.9142 216.7552 13.35270701140383
Epoch: 2026-05-30T14:19Z
TLE epoch observation values (Epoch: 2026-05-30T14:19:21.511Z)
Latitude
25.7195°
Longitude
-91.94516°
Altitude
1,273.148 km
Speed
7.152 km/s
True Right ascension
00h 44m 01s
True Declination
25° 35' 40"
Sunlit
Object was in daylight at epoch
Visualization orbit readout
Latitude
Unknown
Longitude
Unknown
Altitude
Unknown
Speed
Unknown
Apparent Right ascension
Unknown
Apparent Declination
Unknown
Sunlit
N/A
Visualization observer readout
Local Sidereal Time
08:29:31
Azimuth
Unknown
Elevation
Unknown
Doppler factor
Unknown
Orbital elements
Apogee altitude
1,300.897 km
Perigee altitude
947.412 km
Semi-major axis
7,502.292 km
Eccentricity
0.02356
Inclination
82.8195°
RAAN
194.4667°
Arg. of periapsis
298.9142°
True anomaly
215.17723°
Mean anomaly
216.7552°
Eccentric anomaly
215.96252°
Mean motion
3.34004 °/min
Orbital period
107.78 mins
BSTAR
0.00022528
Loading maneuver chart data...
Computing Atmospheric mass density...
Loading historical data...
Loading historical data...
Loading historical data...
Loading historical data...
Loading historical data...
Loading historical data...
Loading historical data...

Documentation

Showing up to 5 results
|